Moab, UT

4:26 AM MST on December 15, 2019 (GMT -0700)
Canyonlands

Weather History for KCNY - June, 2019

Change the Weather History Date:

Thursday, June 6, 2019

  Actual Average Record
Temperature  
Mean Temperature 76 °F 70 °F  
Max Temperature 92 °F 87 °F 102 °F (2016)
Min Temperature 60 °F 53 °F 37 °F (1937)
Degree Days  
Heating Degree Days 0 1  
Month to date heating degree days 0 8  
Since 1 June heating degree days 0 8  
Since 1 July heating degree days 5803 5568  
Cooling Degree Days 11 6  
Month to date cooling degree days 44 32  
Year to date cooling degree days 59 96  
Since 1 June cooling degree days 44 32  
Growing Degree Days 26 (Base 50)    
Moisture  
Dew Point 39 °F    
Average Humidity 30    
Maximum Humidity 49    
Minimum Humidity 11    
Precipitation  
Precipitation 0.00 in 0.01 in 0.36 in (1932)
Month to date precipitation 0.00 0.10  
Year to date precipitation 5.98 3.30  
Sea Level Pressure  
Sea Level Pressure 29.77 in    
Wind  
Wind Speed 7 mph (South)    
Max Wind Speed 28 mph    
Max Gust Speed 37 mph    
Visibility 10 miles    
Events      
T = Trace of Precipitation, MM = Missing Value Source: NWS Daily Summary

Daily Weather History Graph

Daily Weather History Graph

Search for Another Location

Airport or City:

Astronomy

Jun. 06, 2019 Rise Set
Actual Time 5:54 AM MDT 8:41 PM MDT
Civil Twilight 5:22 AM MDT 9:12 PM MDT
Nautical Twilight 4:43 AM MDT 9:52 PM MDT
Astronomical Twilight 3:58 AM MDT 10:37 PM MDT
Moon 9:06 AM MDT (6/6) No Moon Set
Length of Visible Light 15h 49m
Length of Day
14h 46m
Waxing Crescent, 14% of the Moon is Illuminated
Jun 6
Waxing Crescent
Jun 10
First Quarter
Jun 17
Full
Jun 25
Last Quarter
Jul 2
New

Hourly Weather History & Observations

Time (MDT) Temp. Dew Point Humidity Pressure Visibility Wind Dir Wind Speed Gust Speed Precip Events Conditions
12:53 AM 66.9 °F 39.0 °F 36% 29.79 in 10.0 mi Calm Calm - N/A   Scattered Clouds
1:53 AM 64.9 °F 39.0 °F 39% 29.80 in 10.0 mi Calm Calm - N/A   Scattered Clouds
2:53 AM 66.9 °F 37.0 °F 33% 29.79 in 10.0 mi East 6.9 mph - N/A   Clear
3:53 AM 64.0 °F 39.0 °F 40% 29.79 in 10.0 mi Calm Calm - N/A   Clear
4:53 AM 66.9 °F 41.0 °F 39% 29.79 in 10.0 mi East 9.2 mph - N/A   Clear
5:53 AM 61.0 °F 41.0 °F 48% 29.81 in 10.0 mi Variable 3.5 mph - N/A   Clear
6:53 AM 64.0 °F 42.1 °F 45% 29.83 in 10.0 mi SSW 3.5 mph - N/A   Clear
7:53 AM 71.1 °F 43.0 °F 36% 29.81 in 10.0 mi East 10.4 mph - N/A   Clear
8:53 AM 73.9 °F 41.0 °F 30% 29.83 in 10.0 mi East 10.4 mph - N/A   Clear
9:53 AM 77.0 °F 41.0 °F 28% 29.83 in 10.0 mi ESE 8.1 mph - N/A   Clear
10:53 AM 79.0 °F 39.9 °F 25% 29.83 in 10.0 mi Variable 3.5 mph - N/A   Clear
11:53 AM 82.9 °F 41.0 °F 23% 29.82 in 10.0 mi SSE 5.8 mph - N/A   Clear
12:53 PM 86.0 °F 39.0 °F 19% 29.78 in 10.0 mi SE 9.2 mph - N/A   Clear
1:53 PM 88.0 °F 32.0 °F 14% 29.76 in 10.0 mi North - - N/A   Clear
2:53 PM 90.0 °F 28.9 °F 11% 29.73 in 10.0 mi WNW 10.4 mph 17.3 mph N/A   Clear
3:53 PM 90.0 °F 28.9 °F 11% 29.72 in 10.0 mi WSW 8.1 mph - N/A   Clear
4:53 PM 89.1 °F 30.9 °F 12% 29.69 in 10.0 mi East 4.6 mph - N/A   Clear
5:53 PM 89.1 °F 32.0 °F 13% 29.70 in 10.0 mi West 9.2 mph - N/A   Clear
6:53 PM 82.0 °F 41.0 °F 23% 29.72 in 10.0 mi North 17.3 mph - N/A   Mostly Cloudy
7:53 PM 78.1 °F 46.9 °F 33% 29.70 in 10.0 mi North - - N/A   Partly Cloudy
8:53 PM 73.0 °F 46.0 °F 38% 29.71 in 10.0 mi West 8.1 mph - N/A   Clear
9:53 PM 73.0 °F 42.1 °F 33% 29.73 in 10.0 mi WSW 4.6 mph - N/A   Clear
10:53 PM 69.1 °F 43.0 °F 39% 29.75 in 10.0 mi WSW 3.5 mph - N/A   Clear
11:53 PM 66.0 °F 46.0 °F 48% 29.74 in 10.0 mi SSW 17.3 mph 25.3 mph N/A   Scattered Clouds